Imperial, CA

6:32 AM PST on December 11, 2016 (GMT -0800)
Imperial County

Weather History for KIPL - February, 2014

Change the Weather History Date:

Saturday, February 8, 2014

  Actual Average Record
Temperature  
Mean Temperature 59 °F -  
Max Temperature 73 °F 70 °F 84 °F (2015)
Min Temperature 45 °F 46 °F 35 °F (1955)
Degree Days  
Heating Degree Days 6    
Growing Degree Days 9 (Base 50)    
Moisture  
Dew Point 40 °F    
Average Humidity 51    
Maximum Humidity 74    
Minimum Humidity 28    
Precipitation  
Precipitation 0.00 in - - ()
Sea Level Pressure  
Sea Level Pressure 30.12 in    
Wind  
Wind Speed 3 mph (SSE)    
Max Wind Speed 9 mph    
Max Gust Speed -    
Visibility 10 miles    
Events      
Averages and records for this station are not official NWS values.
T = Trace of Precipitation, MM = Missing Value Source: NWS Daily Summary

Daily Weather History Graph

Daily Weather History Graph

Search for Another Location

Airport or City:

Trip Planner

Search our weather history database for the weather conditions in past years. The results will help you decide how hot, cold, wet, or windy it might be!

Date:

Astronomy

Feb. 08, 2014 Rise Set
Actual Time 6:31 AM PST 5:21 PM PST
Civil Twilight 6:06 AM PST 5:47 PM PST
Nautical Twilight 5:37 AM PST 6:16 PM PST
Astronomical Twilight 5:08 AM PST 6:45 PM PST
Moon 12:23 PM PST (2/8) 1:43 AM PST (2/8)
Length of Visible Light 11h 40m
Length of Day
10h 49m
Waxing Gibbous, 69% of the Moon is Illuminated
Feb 8
Waxing Gibbous
Feb 14
Full
Feb 22
Last Quarter
Mar 1
New
Mar 8
First Quarter

Hourly Weather History & Observations

Time (PST) Temp. Dew Point Humidity Pressure Visibility Wind Dir Wind Speed Gust Speed Precip Events Conditions
12:53 AM 53.1 °F 36.0 °F 52% 30.09 in 10.0 mi SSE 3.5 mph - N/A   Clear
1:53 AM 54.0 °F 36.0 °F 51% 30.09 in 10.0 mi Calm Calm - N/A   Clear
2:53 AM 48.0 °F 37.9 °F 68% 30.08 in 10.0 mi NW 4.6 mph - N/A   Clear
3:53 AM 48.9 °F 37.0 °F 64% 30.09 in 10.0 mi SW 4.6 mph - N/A   Clear
4:53 AM 48.0 °F 36.0 °F 63% 30.10 in 10.0 mi Calm Calm - N/A   Clear
5:53 AM 46.9 °F 37.0 °F 68% 30.11 in 10.0 mi South 4.6 mph - N/A   Clear
6:53 AM 45.0 °F 37.0 °F 74% 30.14 in 10.0 mi Calm Calm - N/A   Clear
7:53 AM 50.0 °F 42.1 °F 74% 30.17 in 10.0 mi SW 4.6 mph - N/A   Clear
8:53 AM 57.0 °F 46.0 °F 67% 30.19 in 10.0 mi Calm Calm - N/A   Clear
9:53 AM 64.0 °F 44.1 °F 48% 30.21 in 10.0 mi ESE 3.5 mph - N/A   Clear
10:53 AM 66.9 °F 42.1 °F 40% 30.20 in 10.0 mi South 3.5 mph - N/A   Clear
11:53 AM 69.1 °F 39.9 °F 35% 30.16 in 10.0 mi Variable 3.5 mph - N/A   Clear
12:53 PM 70.0 °F 39.9 °F 33% 30.14 in 10.0 mi Variable 3.5 mph - N/A   Clear
1:53 PM 73.0 °F 39.9 °F 30% 30.12 in 10.0 mi East 6.9 mph - N/A   Clear
2:53 PM 73.0 °F 37.9 °F 28% 30.09 in 10.0 mi Calm Calm - N/A   Clear
3:53 PM 73.0 °F 37.9 °F 28% 30.08 in 10.0 mi ESE 3.5 mph - N/A   Clear
4:53 PM 72.0 °F 39.0 °F 30% 30.08 in 10.0 mi SE 9.2 mph - N/A   Clear
5:53 PM 69.1 °F 41.0 °F 36% 30.09 in 10.0 mi SE 3.5 mph - N/A   Clear
6:53 PM 66.9 °F 41.0 °F 39% 30.10 in 10.0 mi East 3.5 mph - N/A   Clear
7:53 PM 63.0 °F 39.9 °F 43% 30.09 in 10.0 mi Calm Calm - N/A   Clear
8:53 PM 59.0 °F 41.0 °F 51% 30.10 in 10.0 mi North 4.6 mph - N/A   Clear
9:53 PM 57.0 °F 44.1 °F 62% 30.10 in 10.0 mi Calm Calm - N/A   Clear
10:53 PM 54.0 °F 44.1 °F 69% 30.12 in 10.0 mi NNW 3.5 mph - N/A   Clear
11:53 PM 50.0 °F 42.1 °F 74% 30.11 in 10.0 mi WSW 4.6 mph - N/A   Clear